SPJOT EPKK-EPKK

Flight info

Callsign SPJOT
Flight time 0h 21m
Altitude 2000
Route DCT
Aircraft DA42/L-SBDGRY/S

Departure

Time 2026-05-06 19:07
Airport Kraków John Paul II International Airport (EPKK)

Arrival

Time 2026-05-06 19:28
Airport Kraków John Paul II International Airport (EPKK)
Time Latitude Longitude Altitude Speed Heading
2026-05-06 18:15 50.07693 19.80076 784 ft 0 kts 348°
2026-05-06 18:50 50.07713 19.80069 784 ft 10 kts 348°
2026-05-06 18:50 50.07739 19.80074 784 ft 2 kts 44°
2026-05-06 18:50 50.07746 19.80099 784 ft 9 kts 73°
2026-05-06 18:51 50.07760 19.80206 784 ft 0 kts 76°
2026-05-06 18:51 50.07760 19.80207 784 ft 2 kts 75°
2026-05-06 18:52 50.07775 19.80312 784 ft 11 kts 70°
2026-05-06 18:52 50.07842 19.80336 784 ft 10 kts 347°
2026-05-06 18:52 50.07849 19.80334 784 ft 0 kts 347°
2026-05-06 19:06 50.07858 19.80331 784 ft 9 kts 348°
2026-05-06 19:06 50.07972 19.80290 783 ft 20 kts 345°
2026-05-06 19:06 50.08014 19.80227 783 ft 13 kts 270°
2026-05-06 19:06 50.07967 19.79865 783 ft 61 kts 257°
2026-05-06 19:07 50.07856 19.79037 839 ft 90 kts 255°
2026-05-06 19:07 50.07704 19.78012 957 ft 106 kts 256°
2026-05-06 19:07 50.07572 19.76899 1240 ft 104 kts 257°
2026-05-06 19:07 50.07469 19.75811 1535 ft 100 kts 277°
2026-05-06 19:08 50.07950 19.75018 1718 ft 111 kts 327°
2026-05-06 19:08 50.08651 19.74443 1885 ft 121 kts 334°
2026-05-06 19:08 50.09474 19.74058 1999 ft 127 kts
2026-05-06 19:08 50.10144 19.74926 2061 ft 131 kts 66°
2026-05-06 19:09 50.10528 19.76238 2075 ft 135 kts 71°
2026-05-06 19:09 50.10841 19.77612 2181 ft 136 kts 76°
2026-05-06 19:09 50.11158 19.78981 2344 ft 132 kts 53°
2026-05-06 19:09 50.12008 19.79179 2398 ft 139 kts 324°
2026-05-06 19:10 50.12288 19.77912 2442 ft 129 kts 248°
2026-05-06 19:10 50.11617 19.77051 2304 ft 134 kts 182°
2026-05-06 19:10 50.11066 19.78048 2286 ft 145 kts 96°
2026-05-06 19:10 50.11532 19.79426 2150 ft 158 kts 29°
2026-05-06 19:11 50.12533 19.79067 1837 ft 154 kts 306°
2026-05-06 19:11 50.12464 19.77724 1913 ft 125 kts 218°
2026-05-06 19:11 50.11655 19.77773 1807 ft 128 kts 139°
2026-05-06 19:11 50.11487 19.79068 1781 ft 127 kts 82°
2026-05-06 19:12 50.11744 19.80291 1865 ft 121 kts 46°
2026-05-06 19:12 50.12533 19.80367 1791 ft 126 kts 322°
2026-05-06 19:12 50.12770 19.79125 1667 ft 126 kts 259°
2026-05-06 19:12 50.12611 19.77837 1729 ft 118 kts 253°
2026-05-06 19:13 50.12392 19.76625 1795 ft 112 kts 236°
2026-05-06 19:13 50.11732 19.76422 1825 ft 112 kts 148°
2026-05-06 19:13 50.11374 19.77514 1763 ft 122 kts 102°
2026-05-06 19:13 50.11256 19.78801 1801 ft 120 kts 96°
2026-05-06 19:14 50.11407 19.80034 1837 ft 120 kts 57°
2026-05-06 19:14 50.12134 19.80645 1810 ft 124 kts
2026-05-06 19:14 50.12885 19.80084 1771 ft 125 kts 305°
2026-05-06 19:14 50.13052 19.78830 1738 ft 120 kts 258°
2026-05-06 19:15 50.12884 19.77623 1755 ft 114 kts 252°
2026-05-06 19:15 50.12321 19.76911 1827 ft 114 kts 180°
2026-05-06 19:15 50.11667 19.77573 1844 ft 124 kts 118°
2026-05-06 19:15 50.11487 19.78894 1934 ft 120 kts 99°
2026-05-06 19:16 50.11717 19.80103 2008 ft 130 kts 47°
2026-05-06 19:16 50.12589 19.80410 1994 ft 138 kts 338°
2026-05-06 19:16 50.13019 19.79243 2038 ft 129 kts 257°
2026-05-06 19:16 50.12577 19.78141 2197 ft 113 kts 210°
2026-05-06 19:17 50.11850 19.78239 2251 ft 122 kts 143°
2026-05-06 19:17 50.11601 19.79597 2043 ft 146 kts 84°
2026-05-06 19:17 50.12114 19.80915 2037 ft 145 kts 34°
2026-05-06 19:17 50.13045 19.80877 2041 ft 140 kts 322°
2026-05-06 19:18 50.13762 19.79846 1763 ft 132 kts 301°
2026-05-06 19:18 50.13827 19.78565 1784 ft 119 kts 243°
2026-05-06 19:18 50.13235 19.77755 1779 ft 113 kts 194°
2026-05-06 19:18 50.12532 19.78043 1788 ft 114 kts 135°
2026-05-06 19:19 50.12373 19.79238 1756 ft 121 kts 73°
2026-05-06 19:19 50.12974 19.80089 1772 ft 122 kts 15°
2026-05-06 19:19 50.13753 19.79830 1799 ft 119 kts 318°
2026-05-06 19:19 50.13965 19.78725 1849 ft 111 kts 246°
2026-05-06 19:20 50.13433 19.77861 1828 ft 110 kts 207°
2026-05-06 19:20 50.12699 19.77760 1886 ft 109 kts 164°
2026-05-06 19:20 50.12136 19.78505 2025 ft 110 kts 118°
2026-05-06 19:20 50.12409 19.79559 1997 ft 130 kts 24°
2026-05-06 19:21 50.13213 19.79182 2035 ft 129 kts 303°
2026-05-06 19:21 50.13277 19.77914 2090 ft 116 kts 235°
2026-05-06 19:21 50.12592 19.78187 1805 ft 133 kts 112°
2026-05-06 19:21 50.12658 19.79472 1823 ft 112 kts 65°
2026-05-06 19:22 50.13237 19.80150 1740 ft 106 kts
2026-05-06 19:22 50.13929 19.79788 1559 ft 108 kts 318°
2026-05-06 19:22 50.14191 19.78790 1424 ft 102 kts 257°
2026-05-06 19:22 50.13700 19.78137 1237 ft 103 kts 176°
2026-05-06 19:23 50.13266 19.78886 1079 ft 104 kts 90°
2026-05-06 19:23 50.13700 19.79586 1026 ft 97 kts 358°
2026-05-06 19:23 50.13983 19.78961 1026 ft 82 kts 234°
2026-05-06 19:23 50.13506 19.78446 1192 ft 92 kts 174°
2026-05-06 19:24 50.13248 19.79269 1264 ft 112 kts 58°
2026-05-06 19:24 50.13651 19.80242 1469 ft 97 kts 80°
2026-05-06 19:24 50.13438 19.81267 1486 ft 112 kts 123°
2026-05-06 19:24 50.12949 19.82218 1626 ft 109 kts 132°
2026-05-06 19:25 50.12381 19.83037 1658 ft 113 kts 144°
2026-05-06 19:25 50.11752 19.83797 1758 ft 112 kts 147°
2026-05-06 19:25 50.11089 19.84452 1807 ft 116 kts 152°
2026-05-06 19:25 50.10368 19.84998 1787 ft 114 kts 159°
2026-05-06 19:26 50.09599 19.85124 1672 ft 105 kts 189°
2026-05-06 19:26 50.08975 19.84775 1594 ft 92 kts 212°
2026-05-06 19:26 50.08596 19.83996 1522 ft 99 kts 264°
2026-05-06 19:26 50.09063 19.83473 1706 ft 107 kts 23°
2026-05-06 19:27 50.09293 19.84106 1777 ft 109 kts 108°
2026-05-06 19:27 50.08533 19.84181 1597 ft 102 kts 247°
2026-05-06 19:27 50.08417 19.83419 1436 ft 107 kts 258°
2026-05-06 19:27 50.08253 19.81923 1114 ft 107 kts 255°
2026-05-06 19:28 50.08101 19.80840 953 ft 92 kts 259°
2026-05-06 19:28 50.08015 19.80221 847 ft 83 kts 253°
2026-05-06 19:28 50.07894 19.79380 784 ft 63 kts 258°
2026-05-06 19:28 50.07857 19.79120 784 ft 2 kts 232°
2026-05-06 19:29 50.07828 19.79085 784 ft 10 kts 205°
2026-05-06 19:29 50.07761 19.79088 784 ft 5 kts 163°
2026-05-06 19:29 50.07714 19.79102 784 ft 10 kts 171°
2026-05-06 19:29 50.07621 19.79152 784 ft 17 kts 122°
2026-05-06 19:30 50.07636 19.79322 784 ft 22 kts 80°
2026-05-06 19:30 50.07674 19.79593 784 ft 26 kts 79°
2026-05-06 19:30 50.07704 19.79803 784 ft 9 kts 77°
2026-05-06 19:30 50.07701 19.79860 784 ft 6 kts 124°
2026-05-06 19:31 50.07665 19.79885 784 ft 13 kts 169°
2026-05-06 19:31 50.07613 19.79912 784 ft 5 kts 126°
2026-05-06 19:31 50.07651 19.80111 784 ft 13 kts 334°
2026-05-06 19:32 50.07694 19.80076 784 ft 2 kts 347°